BEIDOU-2 G7 (C03)

Last updated on Wed Sep 17 2025 00:03:24 GMT+0000 (Coordinated Universal Time)

1 41586U 16037A 25259.66087593 -.00000372 00000+0 00000+0 0 9999 2 41586 1.5405 66.5484 0004912 347.4905 290.1859 1.00265799 4144
UTC large
Height (km)
Speed (km/s)
/
Latitude / Longitude
Inclination (degrees)
Orbital Period (minutes)
Azimuth
Elevation
Range (km)
Doppler Factor

Next 0 passes for location: London (51.5072 / 0.1276)

Sorry there are no passes over London.